Meadow Lake, CO

6:24 AM MDT on April 19, 2018 (GMT -0600)
Meadow Lake

Weather History for KFLY - November, 2013

Change the Weather History Date:

Friday, November 8, 2013

  Actual Average (KCOS) Record (KCOS)
Temperature  
Mean Temperature 48 °F -  
Max Temperature 66 °F 54 °F 78 °F (2006)
Min Temperature 31 °F 26 °F 12 °F (1888)
Degree Days  
Heating Degree Days 16    
Moisture  
Dew Point 13 °F    
Average Humidity 28    
Maximum Humidity 61    
Minimum Humidity 9    
Precipitation  
Precipitation 0.00 in - - ()
Sea Level Pressure  
Sea Level Pressure 30.01 in    
Wind  
Wind Speed 8 mph (NW)    
Max Wind Speed 24 mph    
Max Gust Speed 36 mph    
Visibility 10 miles    
Events      
Averages and records for this station are not official NWS values.
T = Trace of Precipitation, MM = Missing Value Source: NWS Daily Summary

Daily Weather History Graph

Daily Weather History Graph

Search for Another Location

Airport or City:

Astronomy

Nov. 08, 2013 Rise Set
Actual Time 6:33 AM MST 4:50 PM MST
Civil Twilight 6:05 AM MST 5:18 PM MST
Nautical Twilight 5:33 AM MST 5:49 PM MST
Astronomical Twilight 5:02 AM MST 6:21 PM MST
Moon 11:31 AM MST (11/8) 10:13 PM MST (11/8)
Length of Visible Light 11h 12m
Length of Day
10h 16m
Waxing Crescent, 34% of the Moon is Illuminated
Nov 8
Waxing Crescent
Nov 9
First Quarter
Nov 17
Full
Nov 25
Last Quarter
Dec 2
New

Hourly Weather History & Observations

Time (MST) Temp. Windchill Dew Point Humidity Pressure Visibility Wind Dir Wind Speed Gust Speed Precip Events Conditions
12:13 AM 36.0 °F 31.1 °F 17.6 °F 47% 30.11 in 10.0 mi NNE 5.8 mph - N/A   Clear
12:33 AM 36.0 °F 31.1 °F 16.7 °F 46% 30.10 in 10.0 mi West 5.8 mph - N/A   Clear
12:53 AM 40.1 °F 33.2 °F 17.1 °F 39% 30.10 in 10.0 mi WSW 11.5 mph 16.1 mph N/A   Clear
1:13 AM 38.7 °F 31.8 °F 16.2 °F 40% 30.10 in 10.0 mi West 10.4 mph - N/A   Clear
1:33 AM 39.6 °F 33.5 °F 16.0 °F 38% 30.08 in 10.0 mi SW 9.2 mph - N/A   Clear
1:53 AM 40.1 °F 34.7 °F 14.9 °F 36% 30.08 in 10.0 mi West 8.1 mph - N/A   Clear
2:13 AM 38.8 °F 32.6 °F 15.6 °F 39% 30.07 in 10.0 mi WSW 9.2 mph - N/A   Clear
2:33 AM 40.1 °F 36.9 °F 15.6 °F 37% 30.05 in 10.0 mi NNW 4.6 mph - N/A   Clear
2:53 AM 39.2 °F 35.9 °F 15.3 °F 38% 30.05 in 10.0 mi SW 4.6 mph - N/A   Clear
3:13 AM 38.7 °F - 14.9 °F 38% 30.04 in 10.0 mi Calm Calm - N/A   Clear
3:33 AM 39.9 °F 37.8 °F 14.4 °F 35% 30.04 in 10.0 mi SSE 3.5 mph - N/A   Clear
3:53 AM 38.3 °F 34.8 °F 15.4 °F 39% 30.03 in 10.0 mi WNW 4.6 mph - N/A   Clear
4:13 AM 40.6 °F 38.6 °F 14.4 °F 34% 30.02 in 10.0 mi SW 3.5 mph - N/A   Clear
4:33 AM 38.7 °F - 14.7 °F 38% 30.01 in 10.0 mi Calm Calm - N/A   Clear
4:53 AM 37.6 °F - 14.4 °F 39% 30.00 in 10.0 mi Calm Calm - N/A   Clear
5:13 AM 37.0 °F 33.3 °F 14.7 °F 40% 30.00 in 10.0 mi East 4.6 mph - N/A   Clear
5:33 AM 37.9 °F 34.4 °F 13.6 °F 37% 30.00 in 10.0 mi ENE 4.6 mph - N/A   Clear
5:53 AM 37.0 °F 31.6 °F 13.5 °F 38% 30.00 in 10.0 mi NE 6.9 mph - N/A   Clear
6:13 AM 37.2 °F 31.9 °F 13.1 °F 37% 29.97 in 10.0 mi SE 6.9 mph - N/A   Clear
6:33 AM 42.8 °F 38.0 °F 12.2 °F 29% 29.97 in 10.0 mi South 8.1 mph - N/A   Clear
6:53 AM 44.1 °F 37.7 °F 11.7 °F 27% 29.97 in 10.0 mi SE 12.7 mph 19.6 mph N/A   Clear
7:13 AM 46.0 °F 43.1 °F 12.0 °F 25% 29.97 in 10.0 mi SE 5.8 mph 18.4 mph N/A   Clear
7:33 AM 51.8 °F - 11.3 °F 20% 29.96 in 10.0 mi NE 10.4 mph - N/A   Clear
7:53 AM 59.0 °F - 7.5 °F 13% 29.96 in 10.0 mi North 10.4 mph 25.3 mph N/A   Clear
8:13 AM 60.4 °F - 7.0 °F 12% 29.97 in 10.0 mi West 15.0 mph 23.0 mph N/A   Clear
8:33 AM 61.7 °F - 6.8 °F 11% 29.96 in 10.0 mi SSW 9.2 mph 17.3 mph N/A   Clear
8:53 AM 61.3 °F - 7.2 °F 12% 29.96 in 10.0 mi WSW 6.9 mph 17.3 mph N/A   Clear
9:13 AM 62.4 °F - 7.9 °F 12% 29.96 in 10.0 mi WNW 15.0 mph 21.9 mph N/A   Clear
9:33 AM 64.4 °F - 8.1 °F 11% 29.98 in 10.0 mi North 6.9 mph 20.7 mph N/A   Clear
9:53 AM 64.4 °F - 8.2 °F 11% 29.98 in 10.0 mi North 9.2 mph 18.4 mph N/A   Clear
10:13 AM 63.3 °F - 8.2 °F 11% 29.97 in 10.0 mi North 9.2 mph 24.2 mph N/A   Clear
10:33 AM 62.6 °F - 8.2 °F 12% 29.98 in 10.0 mi WNW 12.7 mph 31.1 mph N/A   Clear
10:53 AM 64.0 °F - 8.6 °F 11% 29.98 in 10.0 mi SSE 3.5 mph - N/A   Clear
11:13 AM 63.1 °F - 8.8 °F 12% 29.96 in 10.0 mi West 10.4 mph 18.4 mph N/A   Clear
11:33 AM 63.3 °F - 9.0 °F 12% 29.95 in 10.0 mi West 11.5 mph 18.4 mph N/A   Clear
11:53 AM 62.6 °F - 9.3 °F 12% 29.93 in 10.0 mi West 24.2 mph 35.7 mph N/A   Clear
12:13 PM 62.6 °F - 9.0 °F 12% 29.93 in 10.0 mi West 15.0 mph 29.9 mph N/A   Clear
12:33 PM 63.3 °F - 9.5 °F 12% 29.93 in 10.0 mi West 9.2 mph 21.9 mph N/A   Clear
12:53 PM 63.7 °F - 9.0 °F 12% 29.92 in 10.0 mi West 8.1 mph 16.1 mph N/A   Clear
1:13 PM 65.5 °F - 9.5 °F 11% 29.92 in 10.0 mi West 11.5 mph 17.3 mph N/A   Clear
1:33 PM 65.5 °F - 9.3 °F 11% 29.92 in 10.0 mi WNW 10.4 mph - N/A   Clear
1:53 PM 66.2 °F - 9.9 °F 11% 29.91 in 10.0 mi West 12.7 mph 19.6 mph N/A   Clear
2:13 PM 66.4 °F - 6.4 °F 9% 29.92 in 10.0 mi WNW 21.9 mph 29.9 mph N/A   Clear
2:33 PM 65.1 °F - 7.3 °F 10% 29.92 in 10.0 mi NW 21.9 mph 27.6 mph N/A   Clear
2:53 PM 62.2 °F - 13.3 °F 15% 29.93 in 10.0 mi NE 12.7 mph 28.8 mph N/A   Clear
3:13 PM 59.7 °F - 13.1 °F 16% 29.93 in 10.0 mi NE 12.7 mph 18.4 mph N/A   Clear
3:33 PM 58.8 °F - 13.8 °F 17% 29.95 in 10.0 mi NE 15.0 mph 18.4 mph N/A   Clear
3:53 PM 57.2 °F - 14.7 °F 19% 29.94 in 10.0 mi NE 15.0 mph - N/A   Clear
4:13 PM 55.4 °F - 15.4 °F 21% 29.94 in 10.0 mi NNE 12.7 mph - N/A   Clear
4:33 PM 52.9 °F - 15.6 °F 23% 29.96 in 10.0 mi NE 6.9 mph 17.3 mph N/A   Clear
4:53 PM 49.8 °F - 15.1 °F 25% 29.97 in 10.0 mi NNE 8.1 mph - N/A   Clear
5:13 PM 47.3 °F - 15.3 °F 28% 29.98 in 10.0 mi North 6.9 mph - N/A   Clear
5:33 PM 45.7 °F 42.0 °F 15.8 °F 30% 29.99 in 10.0 mi North 6.9 mph - N/A   Clear
5:53 PM 46.4 °F 42.9 °F 15.8 °F 29% 30.00 in 10.0 mi North 6.9 mph - N/A   Clear
6:13 PM 44.2 °F - 15.3 °F 31% 30.01 in 10.0 mi Calm Calm - N/A   Clear
6:33 PM 45.7 °F 43.4 °F 15.6 °F 30% 30.02 in 10.0 mi NNW 4.6 mph - N/A   Clear
6:53 PM 43.5 °F 37.9 °F 15.4 °F 32% 30.03 in 10.0 mi NE 10.4 mph - N/A   Clear
7:13 PM 46.8 °F - 15.8 °F 29% 30.04 in 10.0 mi WNW 9.2 mph - N/A   Clear
7:33 PM 43.5 °F 40.9 °F 15.6 °F 33% 30.04 in 10.0 mi North 4.6 mph - N/A   Clear
7:53 PM 38.8 °F - 16.3 °F 40% 30.05 in 10.0 mi Calm Calm - N/A   Clear
8:13 PM 40.8 °F - 16.0 °F 37% 30.05 in 10.0 mi Calm Calm - N/A   Clear
8:33 PM 38.5 °F 34.1 °F 17.6 °F 43% 30.06 in 10.0 mi NNE 5.8 mph - N/A   Clear
8:53 PM 37.8 °F - 16.3 °F 42% 30.07 in 10.0 mi Calm Calm - N/A   Clear
9:13 PM 37.6 °F 34.0 °F 16.7 °F 43% 30.08 in 7.0 mi North 4.6 mph - N/A   Clear
9:33 PM 45.3 °F 41.6 °F 16.3 °F 31% 30.09 in 10.0 mi NNW 6.9 mph - N/A   Clear
9:53 PM 44.6 °F 40.2 °F 16.2 °F 32% 30.09 in 10.0 mi NE 8.1 mph - N/A   Clear
10:13 PM 35.6 °F 32.8 °F 17.4 °F 48% 30.10 in 10.0 mi NNW 3.5 mph - N/A   Clear
10:33 PM 34.9 °F - 18.3 °F 51% 30.11 in 10.0 mi Calm Calm - N/A   Clear
10:53 PM 32.9 °F - 18.5 °F 55% 30.11 in 10.0 mi Calm Calm - N/A   Clear
11:13 PM 31.3 °F 23.9 °F 18.5 °F 59% 30.11 in 10.0 mi NW 8.1 mph - N/A   Clear
11:33 PM 31.3 °F 21.6 °F 19.2 °F 61% 30.11 in 10.0 mi NW 12.7 mph - N/A   Clear
11:53 PM 34.7 °F 25.5 °F 18.5 °F 52% 30.12 in 10.0 mi NW 13.8 mph - N/A   Clear